Volver al catálogo

VSP RF A1

ActivoMilitarSSO
NORAD 59135·PAYLOAD·🇧🇪 Belgium

Lanzado Mar 4, 2024 desde Vandenberg Space Force Base

Loading…

Próximos Pases (próximas 24 horas)

TLE

ActualizadoSource: Space-Track

Época: Sep 14, 2026, 14:40 UTC

1 59135U 24043AP  26257.61113490  .00002584  00000-0  11589-3 0  9999
2 59135  97.5710  34.5575 0001112  96.5218 263.6145 15.22128911140609

Sigue VSP RF A1 en tiempo real con AllMySat

Download on the App Store